Vertical_Velocity
1 3 3 2 1 -2 7 -3 9 -1 -2 -4 -3 -5 -5 -4 -6 2 -2 -0 -0 -1 -1 0 -2 -1 -2 -1 -0 0 0 0 -0 -1 3 0 -2 -0 0 -0 -0 -1 0 1 -1 -0 -1 -1 -1
0 2 3 1 -0 2 5 -3 -1 2 -7 -0 0 4 1 -3 -0 -2 -2 -1 -1 0 -0 -1 -1 -2 -3 -2 -2 -1 0 -0 0 -0 -1 2 7 0 -0 -0 -0 -1 -0 -0 0 -0 4 1 3
4 0 5 -0 -4 3 12 -5 1 -5 -0 1 -1 -6 -2 -3 -1 -2 -1 -2 -2 -1 0 -0 -0 -0 -0 -1 -1 -0 -1 -1 -1 -1 -2 -0 -0 -1 -1 1 -0 -1 -1 -1 -1 -1 0 -1 3
5 1 5 -0 -3 -3 4 3 -1 -2 -1 -1 -4 -0 -1 1 0 0 -0 -1 -2 -1 0 -2 -0 -0 1 -1 -0 0 -0 -1 -1 -1 -0 -0 -0 1 0 -0 -0 0 0 -1 -0 1 1 -0 0
4 -2 1 -4 17 -6 0 -2 1 1 -1 0 -1 -2 -2 -0 -1 -1 -1 -1 -2 -1 -1 -2 -1 -1 -1 -0 -0 -0 -1 -1 -2 -1 -1 0 0 1 1 -0 0 -0 -0 -0 -1 -1 -0 0 -1
2 -0 3 -3 1 -1 -1 0 0 -1 0 -0 1 -1 -3 -1 -2 -1 -1 -0 -1 -1 -1 -1 -1 -1 -0 0 0 -0 0 -1 -0 -1 -1 -1 -0 -1 0 1 0 1 0 -0 -0 1 0 0 1
-8 3 -2 3 1 1 -1 1 1 -2 -1 2 -1 -2 -2 -1 -0 -0 -1 -0 -0 -1 -2 -1 -1 -0 -0 -0 0 0 0 0 -0 -0 -0 -1 -1 -0 -1 -1 -0 -0 2 1 0 -0 -1 -1 -1
-3 -2 -1 14 -8 5 -3 3 -1 0 -9 2 -1 -3 -3 0 -0 -0 -0 -1 -1 -0 -0 -1 -1 -1 -1 -1 -0 -0 -1 -1 -1 -0 1 0 -1 2 -1 -3 -1 -0 0 0 0 -0 1 -1 -1
3 -5 -2 -1 -5 -2 0 -1 -1 -3 1 -4 -2 -3 -3 0 -1 -1 -1 -1 -2 -1 -1 -1 -1 -1 -0 -1 -1 -0 1 -0 -0 -0 1 1 0 0 0 -0 -2 -0 -0 0 1 -1 -1 1 1
-0 -1 9 -1 13 -5 5 -2 2 -0 -1 -2 -2 -2 -2 -2 -2 -2 -1 0 -0 -1 -1 -2 -1 -1 -2 -1 -1 -1 -1 -1 -0 -1 -1 -0 -1 -1 1 -2 2 -1 1 2 -0 1 0 1 -1
4 4 -2 -1 0 2 2 -2 -1 1 1 -1 0 -0 -2 -2 -2 -2 -2 -2 -2 -1 -1 -1 -1 -1 -1 -1 -1 -0 -1 0 0 0 1 1 -0 0 -0 -1 -2 -1 -1 2 -0 -0 -0 -0 -1
-1 2 -5 1 0 -2 4 -0 1 2 -11 -0 -3 -2 -1 -1 -1 -1 -2 -1 -2 -1 -2 -1 -0 -0 0 -0 -0 -1 -1 -0 -1 -0 -0 -0 -1 -1 -1 -1 -1 -1 -0 0 0 -0 2 -0 0
1 -2 2 2 -1 -4 -2 3 -3 -1 0 -0 0 -1 -2 -1 -1 -2 -1 -1 -1 -1 -1 -1 -0 -1 -1 -2 -1 -1 -1 -0 -1 -1 -0 -1 -0 -1 -1 -1 0 -1 -0 -1 -0 1 0 1 1
-0 0 1 4 -1 2 -1 -0 3 -2 -1 -1 0 -1 -2 -2 -2 -2 -2 -1 -2 -1 -1 -2 -1 -1 -0 -1 -1 -1 -2 -1 -1 -1 -1 -1 -1 -1 -1 -0 -0 0 -0 -0 -0 -0 -0 -0 1
-2 -1 3 3 -2 -3 -2 1 -2 -0 -0 -1 -1 -0 -1 -1 -1 -2 -1 -1 -0 -1 -2 -3 -1 -1 -1 -4 -3 -2 -1 -0 -1 -1 -1 -0 0 -1 1 -0 -0 -1 -2 -1 -2 -2 -2 -1 -0
3 4 2 2 0 -1 1 -1 -7 0 -0 -0 -1 0 0 -0 -1 -0 -1 -0 -2 -2 -2 -1 -2 -1 -1 -2 -1 -2 -0 -1 -2 -2 -0 -1 -2 -2 -1 -2 -2 -2 -1 0 0 -2 -2 -3 -3
2 -4 5 1 -1 -2 -1 10 -4 -2 -2 -1 -2 0 0 -0 -0 0 -1 -1 -1 -1 -0 -1 0 -1 -1 -1 -1 -2 0 0 -2 -2 -1 -1 -2 -2 -1 -0 -0 -1 -0 -4 -3 -2 -4 -2 -1
-8 1 3 -1 -3 1 1 -1 1 -1 -1 -2 -1 -0 0 -1 1 -2 -1 -0 -2 -0 -2 -2 -1 0 -1 -1 -1 -1 1 -1 -1 -1 -1 -2 -1 -1 -1 0 0 -1 -4 -4 -3 -2 -2 -4 -4
2 0 5 -5 0 1 2 -1 -2 -3 -2 -3 1 1 -1 -1 -3 -2 -1 -0 -0 -1 -1 1 -0 0 0 -1 -1 -2 -1 -1 -1 -2 -1 -2 -1 -1 -1 -0 -2 -2 -3 -1 -1 -2 -2 -2 -1
-1 3 4 -1 1 2 -2 -3 -1 -3 -1 -0 -0 -1 -0 -4 -3 0 -1 0 -1 -1 0 -0 -0 -1 -1 -1 -1 -1 -0 -2 -2 -1 -2 -2 -1 0 -1 -2 -2 -3 -1 -3 -2 -2 -3 -4 -2
10 3 -1 -2 -1 0 -2 -11 -6 -2 -4 -3 -1 0 -1 -0 1 -1 1 -1 -0 -1 -2 -2 -1 -1 -1 -1 -1 -2 -2 -2 -1 -1 -1 0 -0 -1 -2 -2 -3 -1 -1 -1 -1 -1 -0 -1 -2
1 -4 -2 1 -1 4 -2 -2 -3 -2 -1 -3 1 0 2 3 1 -2 -2 -1 -1 -2 -3 -2 -1 -2 -1 -2 -1 0 -0 -0 -1 -0 0 -1 -2 -2 -2 -1 -0 -1 -1 -2 -2 -2 -3 -3 -1
-4 -3 -0 -1 -1 -0 -2 -1 3 1 3 2 -2 1 0 -1 -1 -1 -1 -1 -2 -1 -1 -1 -2 -1 0 -1 -0 -0 -1 -1 -1 -1 -1 -1 -1 -1 0 0 0 -0 -1 -2 -2 -1 -2 -2 -2
1 -1 -0 0 -1 1 -2 1 0 9 -1 1 1 -1 -2 -1 -0 -1 -1 -2 -1 -1 -1 -0 -1 -0 -1 -1 -1 -2 -2 -2 -1 -0 -1 -2 -2 0 2 1 -1 -2 -2 -2 -1 -2 -2 -3 -2
-1 1 -1 1 -1 1 -2 -1 2 -3 -0 -1 -2 -2 -1 -0 -1 -1 -0 -0 -3 -1 -0 -1 -1 -1 -2 -1 -1 -1 -2 -2 -2 -2 -1 -0 1 -0 -1 -1 -3 -4 -3 -2 -1 -1 0 1 0
-4 0 0 -2 -1 1 -1 -3 5 0 -1 -2 -0 -1 -1 -1 -0 -1 -3 -2 -1 -0 -1 -1 -2 -2 -1 -1 -1 -2 -0 -0 0 1 1 0 -1 -1 -2 -1 -1 -1 -0 -0 -0 -1 -1 -2 -2
-1 -1 -2 -1 -2 -0 0 -2 -1 -2 -2 -0 0 -0 -0 0 -1 -1 -1 -1 -1 -2 -2 -2 -1 0 -1 -1 -1 -0 -1 -1 -1 -1 -1 -0 -1 -2 -3 -2 -1 -1 -2 -2 -2 -1 -2 -2 -2
-7 -3 1 -1 -0 0 0 -2 3 -1 1 2 1 -0 -0 -1 -1 -1 -2 -2 -1 -1 -0 -0 -1 -2 -2 -1 -1 -1 -1 -1 -1 -1 -1 -1 -1 -1 -1 -1 -1 -0 1 0 -1 -0 -1 -1 -1
-1 -1 -2 -2 -3 2 1 8 0 0 -0 -0 0 0 -1 -1 -1 -2 -2 -3 -2 -1 -1 -2 -0 -0 -0 -1 -1 -1 -2 -2 -2 -1 -1 -1 -2 -1 -0 -1 -1 -1 -1 0 -1 -1 -0 -0 -1
-7 -2 0 4 2 -0 -1 6 -1 -1 -0 -0 -1 -1 -3 -2 -1 -2 -1 -0 -1 -1 -1 1 1 1 -1 -2 0 -0 -1 -1 -0 -1 -1 -1 -0 -1 -2 -1 -1 -0 1 1 1 1 2 1 -0
Height
3137 3140 3144 3147 3156 3152 3152 3154 3156 3155 3157 3156 3159 3164 3166 3166 3167 3172 3168 3168 3169 3169 3169 3169 3169 3170 3169 3170 3170 3171 3171 3172 3172 3172 3172 3171 3171 3170 3170 3169 3168 3167 3167 3166 3166 3165 3165 3165 3165
3134 3139 3143 3145 3149 3149 3149 3151 3152 3154 3152 3156 3159 3162 3164 3165 3165 3167 3168 3169 3169 3168 3168 3168 3169 3169 3169 3169 3170 3170 3170 3171 3171 3171 3171 3170 3169 3169 3169 3168 3168 3167 3167 3166 3165 3165 3164 3164 3163
3133 3137 3142 3144 3145 3146 3146 3149 3150 3149 3153 3156 3159 3160 3162 3163 3164 3166 3167 3168 3168 3168 3168 3168 3168 3168 3168 3168 3169 3169 3169 3169 3169 3169 3169 3169 3169 3168 3168 3167 3166 3166 3166 3165 3165 3164 3163 3163 3162
3131 3137 3141 3141 3142 3142 3144 3148 3146 3149 3152 3155 3157 3161 3162 3162 3164 3166 3166 3166 3166 3167 3168 3168 3168 3168 3168 3168 3168 3168 3168 3168 3168 3168 3167 3168 3167 3167 3166 3166 3165 3165 3164 3164 3163 3162 3161 3161 3160
3128 3134 3139 3140 3142 3140 3144 3145 3146 3149 3152 3155 3157 3158 3160 3161 3163 3165 3165 3165 3165 3166 3166 3166 3166 3166 3166 3167 3167 3167 3167 3167 3166 3166 3165 3165 3165 3165 3165 3164 3163 3163 3162 3161 3160 3160 3160 3159 3158
3127 3131 3136 3137 3140 3139 3141 3143 3146 3149 3151 3154 3156 3157 3159 3161 3162 3163 3164 3164 3164 3165 3165 3165 3165 3164 3164 3164 3164 3164 3164 3164 3164 3163 3163 3163 3162 3162 3162 3161 3161 3160 3159 3159 3158 3158 3157 3156 3155
3123 3129 3132 3136 3138 3137 3139 3142 3145 3148 3151 3154 3155 3156 3158 3159 3161 3161 3162 3162 3163 3163 3163 3163 3163 3163 3162 3162 3162 3162 3162 3161 3161 3160 3160 3159 3159 3159 3158 3158 3157 3156 3156 3155 3155 3154 3154 3154 3153
3121 3126 3129 3133 3135 3137 3136 3141 3144 3147 3148 3152 3154 3154 3156 3159 3159 3160 3160 3161 3161 3161 3161 3161 3161 3160 3160 3160 3160 3159 3159 3158 3158 3157 3157 3156 3155 3155 3153 3153 3152 3152 3151 3151 3151 3150 3150 3149 3149
3119 3125 3128 3131 3134 3134 3135 3139 3141 3144 3147 3150 3152 3153 3156 3157 3158 3159 3159 3159 3159 3159 3159 3159 3159 3159 3158 3158 3158 3157 3157 3156 3155 3154 3153 3152 3151 3150 3149 3148 3147 3146 3146 3146 3145 3145 3145 3144 3144
3117 3123 3128 3128 3131 3132 3135 3138 3141 3144 3146 3149 3150 3152 3154 3156 3157 3157 3158 3158 3158 3158 3158 3157 3157 3157 3156 3155 3155 3154 3153 3152 3151 3150 3149 3148 3146 3145 3144 3142 3142 3140 3140 3140 3138 3138 3138 3138 3138
3114 3121 3121 3125 3128 3131 3135 3137 3140 3143 3145 3147 3149 3150 3152 3154 3155 3156 3156 3156 3156 3156 3156 3155 3155 3154 3153 3152 3151 3150 3149 3148 3146 3145 3144 3143 3141 3140 3139 3137 3136 3135 3134 3134 3133 3132 3132 3132 3132
3110 3114 3119 3123 3127 3130 3133 3136 3138 3141 3142 3145 3146 3148 3150 3151 3152 3153 3153 3154 3154 3154 3154 3153 3152 3151 3150 3149 3148 3147 3145 3143 3142 3141 3140 3138 3137 3135 3134 3132 3131 3129 3128 3127 3126 3125 3125 3124 3124
3107 3112 3118 3122 3125 3127 3131 3134 3136 3139 3142 3143 3145 3146 3147 3148 3149 3150 3151 3151 3151 3151 3151 3150 3150 3148 3147 3146 3144 3143 3141 3139 3138 3136 3134 3133 3131 3129 3128 3126 3124 3122 3121 3120 3118 3117 3116 3116 3116
3107 3113 3117 3120 3122 3126 3130 3133 3135 3137 3140 3142 3143 3144 3145 3146 3147 3148 3148 3149 3149 3148 3148 3147 3146 3145 3143 3142 3140 3138 3137 3135 3133 3131 3129 3128 3126 3124 3123 3121 3118 3117 3115 3113 3112 3110 3109 3108 3108
3107 3113 3117 3119 3120 3124 3128 3131 3133 3136 3138 3139 3141 3142 3143 3144 3145 3146 3147 3146 3146 3146 3145 3144 3142 3141 3139 3137 3136 3134 3132 3130 3128 3127 3125 3124 3122 3120 3118 3117 3115 3113 3111 3109 3107 3105 3104 3102 3101
3107 3112 3115 3116 3119 3123 3128 3130 3130 3133 3136 3138 3139 3140 3141 3143 3143 3144 3144 3144 3143 3142 3141 3140 3138 3136 3135 3133 3130 3129 3127 3125 3124 3123 3122 3120 3118 3116 3114 3113 3111 3109 3107 3105 3103 3101 3099 3097 3096
3105 3108 3114 3116 3118 3121 3126 3128 3127 3130 3133 3135 3136 3137 3139 3139 3140 3140 3140 3140 3139 3138 3137 3135 3133 3132 3130 3128 3126 3124 3123 3122 3120 3119 3118 3116 3114 3112 3110 3108 3106 3104 3103 3101 3099 3097 3094 3092 3089
3101 3108 3112 3113 3117 3119 3122 3124 3125 3127 3130 3132 3133 3134 3135 3136 3137 3136 3137 3136 3135 3134 3133 3131 3129 3127 3125 3123 3121 3120 3119 3118 3117 3115 3113 3111 3109 3107 3105 3103 3101 3100 3098 3096 3094 3092 3089 3085 3081
3103 3107 3111 3111 3115 3119 3120 3122 3123 3125 3127 3129 3131 3132 3132 3133 3133 3133 3133 3132 3132 3131 3129 3127 3124 3122 3120 3118 3116 3116 3115 3114 3113 3111 3109 3107 3105 3103 3101 3100 3098 3098 3096 3093 3090 3087 3084 3080 3077
3102 3107 3110 3112 3115 3119 3119 3120 3122 3123 3124 3127 3129 3130 3130 3130 3130 3130 3129 3129 3128 3126 3125 3122 3120 3118 3115 3114 3113 3112 3111 3111 3110 3108 3106 3103 3101 3100 3099 3097 3095 3094 3091 3088 3085 3082 3078 3075 3073
3103 3107 3108 3112 3115 3118 3119 3119 3119 3121 3122 3124 3126 3127 3127 3126 3126 3125 3126 3125 3123 3122 3121 3119 3117 3114 3112 3110 3109 3109 3108 3107 3106 3104 3102 3100 3099 3097 3096 3094 3093 3091 3087 3084 3081 3079 3076 3072 3069
3100 3103 3108 3112 3116 3118 3119 3120 3117 3118 3119 3120 3121 3122 3123 3122 3122 3122 3122 3121 3121 3120 3119 3117 3114 3112 3110 3108 3107 3106 3104 3103 3102 3101 3099 3097 3096 3095 3093 3091 3089 3085 3082 3080 3078 3076 3074 3071 3068
3099 3104 3109 3112 3115 3116 3118 3121 3116 3115 3116 3116 3116 3117 3117 3118 3119 3119 3119 3118 3118 3118 3116 3114 3112 3109 3107 3105 3104 3103 3101 3100 3099 3097 3096 3094 3093 3091 3089 3087 3084 3082 3080 3078 3076 3073 3071 3068 3066
3101 3107 3111 3113 3114 3117 3116 3120 3114 3114 3113 3112 3113 3113 3114 3114 3115 3115 3116 3116 3116 3114 3113 3110 3108 3106 3104 3102 3100 3099 3098 3096 3094 3093 3092 3090 3088 3087 3085 3083 3081 3079 3076 3075 3073 3070 3067 3065 3062
3103 3108 3112 3116 3115 3113 3114 3117 3110 3110 3110 3111 3111 3110 3111 3111 3112 3113 3114 3113 3112 3110 3109 3107 3105 3102 3101 3099 3097 3096 3094 3093 3091 3090 3088 3087 3085 3084 3081 3079 3078 3076 3074 3071 3068 3065 3062 3059 3057
3103 3107 3108 3110 3109 3110 3112 3111 3109 3107 3107 3107 3108 3108 3109 3110 3111 3111 3110 3109 3108 3106 3105 3103 3101 3099 3097 3095 3094 3092 3091 3089 3088 3087 3086 3084 3081 3079 3077 3075 3073 3071 3069 3066 3064 3061 3058 3055 3052
3104 3108 3109 3108 3108 3109 3107 3107 3106 3105 3104 3105 3106 3106 3108 3108 3108 3108 3107 3106 3104 3102 3101 3099 3097 3095 3093 3091 3089 3088 3087 3086 3084 3083 3081 3079 3077 3075 3074 3072 3069 3067 3065 3062 3059 3056 3053 3050 3047
3103 3107 3110 3107 3109 3105 3103 3104 3104 3103 3102 3103 3104 3105 3105 3105 3105 3104 3103 3102 3100 3099 3097 3095 3093 3090 3088 3086 3085 3084 3082 3081 3080 3078 3076 3074 3072 3070 3068 3067 3065 3063 3060 3057 3053 3050 3048 3045 3042
3104 3104 3105 3106 3106 3104 3100 3101 3102 3101 3101 3102 3103 3103 3102 3102 3102 3101 3100 3098 3096 3094 3092 3090 3088 3085 3083 3082 3080 3079 3078 3076 3074 3072 3070 3069 3067 3065 3063 3061 3059 3056 3054 3051 3049 3045 3042 3039 3036
3099 3102 3104 3105 3106 3106 3106 3103 3101 3101 3101 3101 3101 3101 3101 3100 3099 3097 3095 3093 3090 3088 3086 3084 3082 3080 3078 3077 3075 3073 3071 3069 3068 3066 3064 3062 3060 3058 3056 3054 3053 3051 3048 3045 3042 3039 3036 3033 3030